STARLINK-32665, 62203

Orbit data source: Space-Track

STARLINK-32665, 62203 is a payload satellite owned by SpaceX/Seattle (US) in LEO that was launched on Wed, 04 Dec 2024 UTC via an FALCON 9 launch vehicle from the Air Force Eastern Test Range (AFETR). Payload-class satellites include a variety of spacecraft equipped with specific instruments for various scientific and technological missions. These include communications satellites like Starlink; space stations such as the ISS; scientific satellites like the Hubble; Earth observation satellites from companies like Planet Labs, Umbra, and HawkEye 360; GPS; miniature CubeSats for education and research; and military/defense satellites.

Loading next visibility...
Identifier
62203, 2024-229M
Orbit
LEO
Last TLE update
14 hours ago
Origin
Manufacturer
SpaceX/Seattle
Mission
Operational Commercial Communications
Bus & Motor
STARLINK V2M, Unknown motor
Mass
730 kg wet, ~700 kg dry
Launch date (UTC)
2024-12-04 (7 months ago)
Launch vehicle
FALCON 9
Launch site
Air Force Eastern Test Range (AFETR)
Object type
Payload
Rocket body
Debris
Shape & HBR
Box + 2 Pan, 29 m
Radar Cross Section
33.884 m², Large (>1 m²)

Expand to show TLE details & history

TLE from 14 hours ago
0 STARLINK-32665
1 62203U 24229M   25189.74852823  .00013382  00000-0  49487-3 0  9998
2 62203  42.9926 208.3709 0000522 323.2690  36.8126 15.27582268 33255
Epoch: 2025-07-08T17:57Z
TLE epoch observation values (Epoch: 2025-07-08T17:57:52.839Z)
Latitude
0.00002°
Longitude
11.9617°
Altitude
482.53 km
Speed
7.626 km/s
True Right ascension
13h 53m 29s
True Declination
0° 00' 00"
Sunlit
Object was in daylight at epoch
Visualization orbit readout
Latitude
-12.71288°
Longitude
-5.26922°
Altitude
484.934 km
Speed
7.624 km/s
Apparent Right ascension
10h 51m 25s
Apparent Declination
-30° 03' 24"
Sunlit
Object is in daylight
Visualization observer readout
Local Sidereal Time
20:09:58
Azimuth
273.982° WNW
Elevation
-55.812°
Doppler factor
1
Orbital elements
Apogee altitude
485.347 km
Perigee altitude
484.63 km
Semi-major axis
6,863.126 km
Eccentricity
0.00005
Inclination
42.9926°
RAAN
208.3709°
Arg. of periapsis
323.269°
True anomaly
Unknown
Mean anomaly
36.8126°
Eccentric anomaly
Unknown
Mean motion
3.81733 °/min
Orbital period
94.31 mins
BSTAR
0.00049487
Loading maneuver chart data...
Loading SW <> Apogee altitude chart data...
Loading historical data...
Loading historical data...
Loading historical data...
Loading historical data...
Loading historical data...
Loading historical data...
Loading historical data...

STARLINK-32665 Visibility forecast

Observer location: undefined°, undefined°

Span
Click to sort rows by Start time (UTC) header in descending order
Start Az.
Max El. time (UTC)
Max El. Az.
Max El.
End time (UTC)
End Az.
7 mins2025-07-09 08:28:23.022Z289.453° WNW2025-07-09 08:32:23.022Z52.404° ENE39.43°2025-07-09 08:35:23.022Z92.57° ESE
5 mins2025-07-09 10:08:23.022Z272.603° WNW2025-07-09 10:10:23.022Z227.465° WSW33.59°2025-07-09 10:13:23.022Z141.284° SSE
6 mins2025-07-10 04:43:23.022Z230.446° WSW2025-07-10 04:46:23.022Z119.314° SE38.521°2025-07-10 04:49:23.022Z76.631° E
6 mins2025-07-10 06:22:23.022Z278.356° WNW2025-07-10 06:25:23.022Z26.358° NE37.806°2025-07-10 06:28:23.022Z71.581° E
|